Location: Barrio de Canyet
(41.4665°N, 2.2381°E)
Time: 08:54:57
(UTC+00:00)

Mayak - Pass Details

Date: 09 April 2020
Orbit: 581 x 600 km, 97.5° (Epoch: 03 June)

Event Time Altitude Azimuth Distance (km) Brightness Sun altitude
Rises 22:02:22 0° 12° (NNE) 2,817 ? -34.5°
Reaches altitude 10° 22:04:32 10° 14° (NNE) 1,911 ? -34.7°
Enters shadow 22:04:33 10° 14° (NNE) 1,904 ? -34.7°
